This is the latest recevied weather packets stored in our database for station/object HP3ICC-22. If no packets are shown the sender has not sent any weather packets the latest 10 day(s).
| Time | Temp. | Humidity | Pressure | Rain* | Wind** | Luminosity | Snow |
|---|---|---|---|---|---|---|---|
| 1778003035 | 13.33° C | 77% | 1013 hPa | 0 mm | - | - | - |
| 1778002975 | 13.33° C | 77% | 1013 hPa | 0 mm | - | - | - |
| 1778001835 | 13.89° C | 73% | 1013 hPa | 0.25 mm | - | - | - |
| 1778001775 | 13.89° C | 73% | 1013 hPa | 0.25 mm | - | - | - |
| 1778000634 | 13.89° C | 75% | 1013 hPa | 0.25 mm | - | - | - |
| 1778000574 | 13.89° C | 75% | 1013 hPa | 0.25 mm | - | - | - |
| 1777999434 | 13.33° C | 77% | 1014 hPa | 0.25 mm | - | - | - |
| 1777999374 | 13.33° C | 77% | 1014 hPa | 0.25 mm | - | - | - |
| 1777998233 | 13.89° C | 75% | 1013 hPa | 0 mm | - | - | - |
| 1777998173 | 13.89° C | 75% | 1013 hPa | 0 mm | - | - | - |
| 1777997032 | 13.89° C | 76% | 1013 hPa | 0 mm | - | - | - |
| 1777996972 | 13.89° C | 76% | 1013 hPa | 0 mm | - | - | - |
| 1777995832 | 13.33° C | 76% | 1014 hPa | 0 mm | - | - | - |
| 1777995772 | 13.33° C | 76% | 1014 hPa | 0 mm | - | - | - |
| 1777994632 | 14.44° C | 77% | 1013 hPa | 0 mm | - | - | - |
| 1777994571 | 14.44° C | 77% | 1013 hPa | 0 mm | - | - | - |
| 1777993431 | 14.44° C | 77% | 1013 hPa | 0 mm | - | - | - |
| 1777993371 | 14.44° C | 77% | 1013 hPa | 0 mm | - | - | - |
| 1777992231 | 13.89° C | 76% | 1014 hPa | 0 mm | - | - | - |
| 1777992171 | 13.89° C | 76% | 1014 hPa | 0 mm | - | - | - |
| 1777991030 | 13.89° C | 82% | 1013 hPa | 0 mm | - | - | - |
| 1777990970 | 13.89° C | 82% | 1013 hPa | 0 mm | - | - | - |
| 1777989830 | 13.33° C | 85% | 1013 hPa | 0 mm | - | - | - |
| 1777989770 | 13.33° C | 85% | 1013 hPa | 0 mm | - | - | - |
| 1777988629 | 11.11° C | 89% | 1014 hPa | 0 mm | - | - | - |
* Rain latest hour (hover to see other rain measurements)
** Current wind speed in m/s (hover to see current wind gust speed)